Location: Newark
(19.2431°N, 110.4642°E)
Time: 03:26:42
(UTC+00:00)

Envisat - Visible Passes

Search period start: 25 August 2019 00:00
Search period end: 04 September 2019 00:00
Orbit: 764 x 766 km, 98.1° (Epoch: 24 August)

Date Brightness Start Highest point End Pass type
(mag) Time Alt. Az. Time Alt. Az. Time Alt. Az.
25 Aug 5.6 12:02:39 10° SSW 12:06:24 21° W 12:10:11 10° NW visible
26 Aug 3.8 11:24:39 10° S 11:29:37 57° WSW 11:34:36 10° NNW visible
28 Aug 5.1 11:50:50 10° SSW 11:55:08 28° W 11:59:27 10° NW visible
29 Aug 3.2 11:13:19 10° S 11:18:22 77° WSW 11:23:27 10° NNW visible
30 Aug 5.9 12:18:10 10° SW 12:20:42 14° W 12:23:15 10° WNW visible
31 Aug 4.6 11:39:13 10° SSW 11:43:52 37° W 11:48:33 10° NNW visible
02 Sep 5.7 12:05:56 10° SW 12:09:26 19° W 12:12:56 10° NW visible
03 Sep 4.0 11:27:43 10° S 11:32:37 51° W 11:37:32 10° NNW visible
